Lid_Strength_Index
8 8 9 9 9 8 9 11 12 11 9 11 11 11 10 8 7 7 7 6 5 4 3 2 2 1 1 1 1 0 0 -0 -0 0 1 1 0 -0 -0 -1 -1 -2 -1 -1
8 9 8 8 8 8 9 11 13 11 9 10 11 11 10 9 8 7 7 6 5 4 4 3 2 2 1 1 1 1 0 -0 -0 -0 -0 -0 0 -0 -1 -1 -1 -1 -1 -1
8 8 7 7 8 9 10 10 12 12 11 10 11 12 11 9 8 7 6 5 4 4 4 3 3 2 2 1 1 1 0 -0 -0 -1 -0 -0 -0 -1 0 0 -0 -1 -1 -1
8 7 8 8 8 8 10 8 10 12 13 15 11 16 13 10 10 8 7 6 5 4 4 3 3 3 2 1 1 0 0 0 -0 -1 -0 0 1 2 0 -1 -1 -1 -1 -1
8 8 8 9 8 6 9 8 10 11 12 13 14 16 13 10 12 9 7 6 5 4 4 4 3 2 2 1 1 1 0 0 -0 -0 -0 0 0 0 -0 0 -0 -1 -1 -1
7 6 7 7 7 6 8 10 10 11 12 17 13 14 14 13 11 9 7 6 5 4 4 3 2 2 2 1 1 1 1 1 -0 -0 -0 0 0 0 1 0 1 0 -0 -1
8 7 7 7 9 8 9 11 15 17 17 17 13 15 13 10 8 8 7 6 5 4 4 3 3 3 2 2 1 1 1 1 0 0 0 0 0 0 0 0 0 0 0 -0
10 11 9 7 9 10 10 10 12 17 17 16 13 17 12 8 7 6 6 6 5 5 4 4 3 3 2 2 2 1 1 1 1 0 0 -0 -0 0 0 0 -0 0 0 0
10 10 7 8 7 8 11 12 9 14 14 16 15 12 9 8 8 8 7 6 6 5 4 4 3 3 2 2 2 1 1 1 1 0 0 0 -0 -0 0 -0 -0 -0 -0 -0
8 11 8 7 7 7 9 8 13 13 17 18 15 15 14 11 10 8 8 7 6 5 5 4 3 3 2 2 1 1 1 1 1 0 0 0 0 -0 -0 -0 -0 -0 -1 -1
7 9 9 8 9 10 10 11 11 11 13 15 16 13 9 9 9 9 8 7 6 6 5 4 4 3 2 2 1 1 1 1 1 1 0 0 0 -0 -0 -0 -0 -0 -1 -1
7 8 11 9 7 7 8 9 9 13 14 13 14 13 8 8 7 7 7 6 6 5 5 4 4 3 2 2 2 2 1 1 1 0 0 0 0 -0 0 0 -0 -1 -0 -1
7 9 12 11 9 8 9 9 9 10 10 12 14 12 7 7 7 7 7 6 5 5 5 4 4 4 3 2 2 2 1 1 1 0 1 0 1 0 0 0 -0 -0 -0 -0
5 8 10 12 11 10 12 11 10 10 11 11 11 10 9 9 9 8 7 6 5 5 5 5 4 4 3 2 2 2 2 1 1 1 1 1 1 0 0 -0 -0 -0 -0 -0
7 10 9 9 10 10 11 11 11 11 11 11 10 12 11 10 9 8 7 6 6 6 5 5 4 4 3 3 3 2 2 2 1 1 1 1 0 0 0 0 -0 -0 -0 -0
7 10 10 11 9 9 11 10 11 11 11 11 11 12 8 8 7 7 7 7 6 6 5 5 4 4 4 3 3 2 2 1 1 1 1 1 1 1 1 1 0 0 0 0
9 10 11 12 10 11 13 11 10 11 10 11 13 10 8 9 9 8 7 6 6 6 5 4 4 4 3 3 3 3 2 1 1 1 1 1 1 1 1 1 1 1 1 1
9 10 11 12 11 17 10 8 8 9 9 9 9 9 9 8 7 7 6 6 6 5 5 5 4 3 3 2 2 2 2 2 2 2 2 1 1 2 1 1 1 1 1 1
7 9 12 13 14 12 11 9 10 10 9 8 9 9 8 7 7 7 5 5 5 5 4 4 4 3 3 2 2 2 2 2 2 2 2 2 1 2 2 2 1 1 1 1
8 8 10 13 15 16 11 8 6 7 12 7 8 8 8 7 11 9 5 4 4 5 5 5 5 4 4 4 3 2 3 2 2 2 2 1 1 1 2 1 1 1 1 3
11 11 12 13 14 12 8 7 6 13 11 7 7 7 7 8 7 6 4 4 4 4 4 5 6 6 5 4 4 3 3 4 3 2 2 2 3 2 1 2 1 3 4 5
11 13 13 12 14 15 6 7 11 8 6 6 6 6 7 6 6 5 4 4 4 4 5 4 5 6 6 6 6 6 6 4 4 4 3 3 3 4 4 3 2 3 4 5
12 9 11 11 10 7 6 6 5 5 6 6 6 6 6 6 5 5 5 4 4 3 4 4 5 6 6 6 6 8 8 6 5 5 5 6 4 5 5 4 3 3 3 4
8 7 9 10 8 7 6 5 5 5 5 5 4 5 4 5 4 4 4 4 3 3 3 3 4 6 6 7 7 7 7 7 7 8 7 6 7 7 7 7 5 4 4 4
7 7 9 9 7 6 6 5 5 4 4 4 4 4 4 4 4 4 4 3 3 3 3 3 4 4 5 5 6 6 6 5 6 7 8 9 9 9 9 10 9 8 10 10
6 8 9 8 6 6 5 4 4 5 5 4 4 4 3 3 4 3 3 3 3 3 2 3 4 4 4 5 5 4 4 4 5 5 6 7 7 8 8 9 10 13 13 13